Showing default

MIDAS 6 (FTV 1169), 574

Orbit data source: Space-Track

MIDAS 6 (FTV 1169), 574 is a payload satellite owned by USAF SSD (US) in LEO that was launched on Thu, 09 May 1963 UTC via an ATLAS AGENA B launch vehicle from the Air Force Western Test Range (AFWTR). Payload-class satellites include a variety of spacecraft equipped with specific instruments for various scientific and technological missions. These include communications satellites like Starlink; space stations such as the ISS; scientific satellites like the Hubble; Earth observation satellites from companies like Planet Labs, Umbra, and HawkEye 360; GPS; miniature CubeSats for education and research; and military/defense satellites.

Loading next visibility...
Identifier
574, 1963-014A
Orbit
LEO
Country
Flag of USUS
Related business
Manufacturer
LMSC
Mission
Spacecraft
Bus & Motor
MIDAS, Unknown motor
Mass
~1,540 kg wet, ~840 kg dry
Launch date (UTC)
1963-05-09 (63 years ago)
Launch vehicle
ATLAS AGENA B
Launch site
Air Force Western Test Range (AFWTR)
Object type
Payload
Rocket body
Debris
Shape & HBR
Unknown
Radar Cross Section
Large (>1 m²)

Expand to show TLE details & history
Last TLE update: 1 day ago

TLE from 1 day ago
0 MIDAS 6 (FTV 1169)
1 00574U 63014A   26073.74513866 -.00000003  00000-0 -27006-2 0  9990
2 00574  87.3538 204.6821 0031235 207.7063 152.2127  8.65277031209611
Epoch: 2026-03-14T17:52Z
TLE epoch observation values (Epoch: 2026-03-14T17:52:59.980Z)
Latitude
-0.00004°
Longitude
124.07027°
Altitude
3,674.014 km
Speed
6.289 km/s
True Right ascension
13h 38m 43s
True Declination
0° 00' 00"
Sunlit
Object was in full shadow at epoch
Visualization orbit readout
Latitude
Unknown
Longitude
Unknown
Altitude
Unknown
Speed
Unknown
Apparent Right ascension
Unknown
Apparent Declination
Unknown
Sunlit
N/A
Visualization observer readout
Local Sidereal Time
22:29:24
Azimuth
Unknown
Elevation
Unknown
Doppler factor
Unknown
Orbital elements
Apogee altitude
3,673.23 km
Perigee altitude
3,610.635 km
Semi-major axis
10,020.069 km
Eccentricity
0.00312
Inclination
87.3538°
RAAN
204.6821°
Arg. of periapsis
207.7063°
True anomaly
152.37899°
Mean anomaly
152.2127°
Eccentric anomaly
152.2959°
Mean motion
2.1639 °/min
Orbital period
166.37 mins
BSTAR
-0.0027006
Loading maneuver chart data...
Computing Atmospheric mass density...

Documentation

Showing up to 5 results
|